Weather Roundup
Issued by NWS

Home | Current Version | Previous Version | Graphics & Text | Print | Product List | Glossary Off
Versions: 1 2 3 4 5 6 7 8 9 10 11 12 13 14 15 16 17 18 19 20 21 22 23 24 25 26 27 28 29 30 31 32 33 34 35 36 37 38 39 40 41 42 43 44 45 46 47 48 49 50

722
NZUS93 KARX 100710
HRRWXR

CURRENT HOURLY OBSERVATIONS ACROSS
MUCH OF THE UPPER MISSISSIPPI VALLEY
NATIONAL WEATHER SERVICE LA CROSSE WI
100 AM CST SAT DEC 10 2016


...SOUTHEAST MINNESOTA...


CITY           SKY/WX    TMP DP  RH WIND       PRES   REMARKS
ROCHESTER      CLOUDY     8   5  87 NW10      30.45F WCI  -6
ROCHESTER/MAYO CLOUDY    10   5  82 W8        30.47S WCI  -2
WINONA         PTCLDY    14   9  79 W7        30.50F WCI   4
AUSTIN         LGT SNOW  10   7  85 NW5       30.47S WCI   2
ALBERT LEA     CLOUDY    14  10  85 W5        30.47F WCI   6
DODGE CENTER   PTCLDY     7   3  85 NW5       30.45F WCI  -2
PRESTON        LGT SNOW   9   6  87 NW6       30.46S WCI  -1
OWATONNA       CLOUDY     9   3  78 W6        30.48S WCI  -1
FARIBAULT      CLOUDY     7   3  85 W6        30.49F WCI  -3
$$

...ELSEWHERE IN MINNESOTA...


CITY           SKY/WX    TMP DP  RH WIND       PRES   REMARKS
MINNEAPOLIS    MOCLDY     8   1  73 W9        30.51R WCI  -5
INTNL FALLS    CLEAR     -5  -9  83 W7        30.43S WCI -19
DULUTH         LGT SNOW   5   0  79 N6        30.39F WCI  -6
RED WING       FLURRIES  10   3  72 W7        30.49S WCI   0
REDWOOD FALLS  CLOUDY     5  -2  72 NW8       30.53S WCI  -8
MANKATO        NOT AVBL
WORTHINGTON    FLURRIES   7   3  84 N6        30.47S WCI  -3
FAIRMONT       FLURRIES   8   4  83 N9        30.50F WCI  -5
$$

...SOUTHWEST WISCONSIN...


CITY           SKY/WX    TMP DP  RH WIND       PRES   REMARKS
LA CROSSE      CLOUDY    16  10  77 NW9       30.49F WCI   4
PRAIRIE DU CHI LGT SNOW  18  13  80 SW3       30.50F
BOSCOBEL       CLOUDY    18  13  80 CALM      30.50F
LONE ROCK      CLOUDY    18  12  77 W8        30.49F WCI   8
PLATTEVILLE    PTCLDY    16  15  93 CALM      30.48F
FORT MC COY    CLOUDY    15   9  76 W8        30.47S WCI   5
CAMP DOUGLAS   CLEAR     13   8  81 W7        30.45F WCI   3
MAUSTON-NEW LI PTSUNNY   16  11  81 W6        30.45S WCI   8
VIROQUA        CLOUDY    13  10  85 W5        30.44S WCI   5
WIS DELLS      MOCLDY    16  10  78 W7        30.45S WCI   6
$$

...ELSEWHERE IN WISCONSIN...


CITY           SKY/WX    TMP DP  RH WIND       PRES   REMARKS
MILWAUKEE      CLOUDY    20  12  71 W8        30.47S WCI  10
MADISON        CLOUDY    18  10  71 W7        30.46S WCI   9
GREEN BAY      CLOUDY    20  10  65 W8        30.43R WCI  10
EAU CLAIRE     CLOUDY    13   5  70 W7        30.45F WCI   3
BLACK RVR FLS  FAIR      12   7  81 SW3       30.46S
MEDFORD        CLOUDY    11   2  67 W8        30.37S WCI   0
WAUSAU         CLOUDY    14   8  77 W8        30.38S WCI   3
WIS RAPIDS     CLOUDY    15  10  80 W7        30.43F WCI   5
MARSHFIELD     FLURRIES  14   8  77 W9        30.39S WCI   2
RICE LAKE      CLOUDY    12   1  62 W9        30.45F WCI   0
$$

...NORTHEAST IOWA...


CITY           SKY/WX    TMP DP  RH WIND       PRES   REMARKS
WATERLOO       CLOUDY    18  12  77 W5        30.50S WCI  11
DUBUQUE        CLOUDY    16  12  84 W7        30.47F WCI   6
DECORAH        CLOUDY    14  12  92 CALM      30.46S
MASON CITY     CLOUDY    11   8  88 NW6       30.49S WCI   1
CHARLES CITY   CLOUDY    14  12  92 W5        30.49R WCI   6
OELWEIN        CLOUDY    18  16  93 W3        30.48F
$$

...ELSEWHERE IN IOWA...


CITY           SKY/WX    TMP DP  RH WIND       PRES   REMARKS
DES MOINES     CLOUDY    22  13  68 W5        30.52S WCI  16
IOWA CITY      CLOUDY    20  15  81 CALM      30.55S
FORT DODGE     CLOUDY    18   9  68 CALM      30.49F
MARSHALLTOWN   CLOUDY    19  14  81 W5        30.50S WCI  12
CEDAR RAPIDS   CLOUDY    19  16  88 SW3       30.50F
$$

...NORTHERN ILLINOIS...


CITY           SKY/WX    TMP DP  RH WIND       PRES   REMARKS
CHICAGO-OHARE  CLOUDY    19  12  74 W10       30.50S WCI   7
CHICAGO-MIDWAY CLOUDY    21  11  65 W10       30.52S WCI  10
MOLINE         CLOUDY    21  14  74 SW3       30.54F
ROCKFORD       CLOUDY    18  12  77 W7        30.52F WCI   9
PEORIA         CLOUDY    21  14  74 NW3       30.54F
$$

NOTE: "FAIR" INDICATES FEW OR NO CLOUDS BELOW 12,000 FEET WITH NO
SIGNIFICANT WEATHER AND/OR OBSTRUCTIONS TO VISIBILITY. WIND
SPEEDS ARE IN MILES-PER-HOUR.




USA.gov is the U.S. government's official web portal to all federal, state and local government web resources and services.